This demonstration page uses our WeatherBlox Daily Observations layout. Learn more.

Left ArrowRight Arrow

34.16533, -84.80231

Hourly Observations for December 1, 2017

Temp ( °F °C ) Dew Point ( °F °C ) Humidity (%) Winds ( mph kmh ) Pressure ( in mb ) Visibility ( mi km ) Precip ( " mm )
12:53 am 00:53 Cloudy 59 15 59 15 100 100 Calm 30.09 1019 7 11 0.00 0.00
1:17 am 01:17 Cloudy 59 15 59 15 100 100 Calm 30.09 1019 7 11 0.00 0.00
1:36 am 01:36 Mostly Cloudy with Mist and Fog 58 14.4 58 14.4 100 100 Calm 30.09 1019 6 10 0.00 0.00
1:53 am 01:53 Mostly Clear with Mist and Fog 56 13.3 56 13.3 100 100 Calm 30.09 1019 4 6 0.00 0.00
2:00 am 02:00 Mostly Clear with Mist and Fog 56 13.3 56 13.3 100 100 Calm 30.12 1020 2 3 0.00 0.00
2:10 am 02:10 Mostly Clear with Mist and Fog 56 13.3 56 13.3 100 100 Calm 30.12 1020 3 4 0.00 0.00
2:14 am 02:14 Partly Cloudy with Mist and Fog 55 12.8 55 12.8 100 100 Calm 30.12 1020 2 3 0.00 0.00
2:21 am 02:21 Mostly Cloudy with Mist and Fog 56 13.3 56 13.3 100 100 Calm 30.12 1020 1 1 0.00 0.00
2:27 am 02:27 Mostly Cloudy with Fog 55 12.8 55 12.8 100 100 Calm 30.12 1020 1 1 0.00 0.00
2:37 am 02:37 Cloudy with Mist and Fog 55 12.8 55 12.8 100 100 Calm 30.12 1020 2 3 0.00 0.00
2:48 am 02:48 Cloudy with Mist and Fog 55 13 55 13 100 100 Calm 30.12 1020 3 5 0.00 0.00
2:53 am 02:53 Cloudy with Mist and Fog 56 13.3 56 13.3 100 100 Calm 30.09 1019 3 5 0.00 0.00
3:22 am 03:22 Cloudy with Mist and Fog 57 13.9 57 13.9 100 100 Calm 30.12 1020 3 5 0.00 0.00
3:42 am 03:42 Cloudy with Mist and Fog 58 14.4 58 14.4 100 100 Calm 30.09 1019 3 5 0.00 0.00
3:53 am 03:53 Cloudy with Mist and Fog 57 13.9 57 13.9 100 100 SW 3 6 30.09 1019 3 5 0.00 0.00
4:48 am 04:48 Cloudy with Mist and Fog 57 14 57 14 100 100 N 3 6 30.12 1020 5 8 0.00 0.00
4:53 am 04:53 Cloudy with Mist and Fog 57 13.9 57 13.9 100 100 NNE 3 6 30.09 1019 5 8 0.00 0.00
5:53 am 05:53 Cloudy with Mist and Fog 57 13.9 56 13.3 96 96 N 7 11 30.10 1019 6 10 0.00 0.00
6:53 am 06:53 Cloudy with Mist and Fog 56 13.3 56 13.3 100 100 Calm 30.12 1020 5 8 0.00 0.00
7:53 am 07:53 Cloudy with Mist and Fog 56 13.3 56 13.3 100 100 Calm 30.14 1021 4 6 0.00 0.00
8:53 am 08:53 Cloudy with Mist and Fog 56 13.3 55 12.8 97 97 N 3 6 30.16 1021 5 8 0.00 0.00
9:53 am 09:53 Cloudy 57 13.9 55 12.8 93 93 NNW 3 6 30.16 1022 7 11 0.00 0.00
10:53 am 10:53 Cloudy 57 13.9 55 12.8 93 93 Calm 30.17 1022 7 11 0.00 0.00
11:46 am 11:46 Mostly Cloudy 58 14.4 54 12.2 87 87 N 5 7 30.18 1022 9 14 0.00 0.00
11:53 am 11:53 Mostly Cloudy 60 15.6 54 12.2 80 80 N 3 6 30.16 1021 9 14 0.00 0.00
12:12 pm 12:12 Partly Cloudy 60 15.6 54 12.2 80 80 NE 3 6 30.15 1021 10 16 0.00 0.00
12:53 pm 12:53 Sunny 63 17.2 53 11.7 70 70 NNW 5 7 30.13 1020 10 16 0.00 0.00
1:53 pm 13:53 Sunny 65 18.3 53 11.7 66 66 NNW 6 9 30.11 1020 10 16 0.00 0.00
2:53 pm 14:53 Sunny 67 19.4 54 12.2 63 63 NNW 5 7 30.10 1019 10 16 0.00 0.00
3:53 pm 15:53 Sunny 66 18.9 54 12.2 65 65 Calm 30.10 1019 10 16 0.00 0.00
4:53 pm 16:53 Sunny 63 17.2 54 12.2 73 73 Calm 30.10 1019 10 16 0.00 0.00
5:53 pm 17:53 Mostly Cloudy 56 13.3 55 12.8 97 97 Calm 30.11 1020 10 16 0.00 0.00
6:53 pm 18:53 Partly Cloudy 55 12.8 54 12.2 96 96 Calm 30.13 1020 10 16 0.00 0.00
7:53 pm 19:53 Clear 51 10.6 51 10.6 100 100 Calm 30.14 1021 10 16 0.00 0.00
8:53 pm 20:53 Clear 51 10.6 51 10.6 100 100 Calm 30.15 1021 9 14 0.00 0.00
9:53 pm 21:53 Clear with Mist and Fog 48 8.9 48 8.9 100 100 Calm 30.15 1021 6 10 0.00 0.00
10:32 pm 22:32 Clear with Mist and Fog 47 8.3 47 8.3 100 100 Calm 30.18 1022 3 4 0.00 0.00
10:39 pm 22:39 Clear with Mist and Fog 45 7.2 45 7.2 100 100 Calm 30.18 1022 5 8 0.00 0.00
10:53 pm 22:53 Clear with Mist and Fog 47 8.3 47 8.3 100 100 Calm 30.15 1021 5 8 0.00 0.00
11:17 pm 23:17 Clear with Mist and Fog 47 8.3 47 8.3 100 100 Calm 30.18 1022 2 3 0.00 0.00
11:29 pm 23:29 Mostly Cloudy with Mist and Fog 46 7.8 46 7.8 100 100 Calm 30.18 1022 1 1 0.00 0.00
11:32 pm 23:32 Mostly Cloudy with Mist and Fog 45 7.2 45 7.2 100 100 Calm 30.18 1022 1 2 0.00 0.00
11:36 pm 23:36 Mostly Clear with Mist and Fog 44 6.7 44 6.7 100 100 Calm 30.18 1022 2 3 0.00 0.00
11:45 pm 23:45 Mostly Clear with Mist and Fog 45 7.2 45 7.2 100 100 Calm 30.15 1021 5 8 0.00 0.00
11:53 pm 23:53 Clear with Mist and Fog 45 7.2 45 7.2 100 100 Calm 30.14 1021 5 8 0.00 0.00

Powered by AerisWeather